User: anonymous   Login
Location: Gandikunta
(16.3784°N, 80.8378°E)
Time: 07:56:16
(UTC+00:00)
Language:

Cosmos 1844 Rocket - Orbit

View from above orbital plane
View from above orbital plane
View from above satellite
View from above satellite

Ground track
Ground track

The orbit data is extracted from the following two-line orbital elements,

1 17974U 87041B   25199.19976850 -.00000056  00000-0 -40988-5 0  9996
2 17974  71.0071 167.1894 0014902 211.2874 239.0540 14.17593393975091
Epoch (UTC): 18 July 2025 04:47:39
Eccentricity: 0.0014902
inclination: 71.0071°
perigee height: 823 km
apogee height: 844 km
right ascension of ascending node: 167.1894°
argument of perigee: 211.2874°
revolutions per day: 14.17593393
mean anomaly at epoch: 239.0540°
orbit number at epoch: 97509

The dashed part of the orbit path shows where the satellite is in the earth's shadow,  

DLR